Regional Weather Roundup
Issued by NWS Little Rock, AR

Home | Current Version | Previous Version | Graphics & Text | Print | Product List | Glossary On
Versions: 1 2 3 4 5 6 7 8 9 10 11 12 13 14 15 16 17 18 19 20 21 22 23 24 25 26 27 28 29 30 31 32 33 34 35 36 37 38 39 40 41 42 43 44 45 46 47 48 49 50
000
ASUS44 KLZK 271505
RWRLZK

WEATHER ROUNDUP FOR ARKANSAS
NATIONAL WEATHER SERVICE LITTLE ROCK AR
1000 AM CDT SUN JUL 27 2014

NOTE: "FAIR" INDICATES FEW OR NO CLOUDS BELOW 12,000 FEET WITH NO
SIGNIFICANT WEATHER AND/OR OBSTRUCTIONS TO VISIBILITY.

ARZ001-003-010-029-271600-
NORTHWEST ARKANSAS

CITY           SKY/WX    TMP DP  RH WIND       PRES   REMARKS
FAYETTEVILLE   SUNNY     85  71  63 W7G16     30.03F HX  90
FORT SMITH     MOSUNNY   87  73  62 SW8       29.99F HX  94
HARRISON       SUNNY     85  71  63 NW8G21    30.02S HX  90
ROGERS         MOSUNNY   83  71  67 W7        30.05S HX  87
SILOAM SPGS    SUNNY     84  70  61 W14       30.05R HX  88
HIGHFILL       MOSUNNY   85  72  65 W12       30.04S HX  91
SPRINGDALE     SUNNY     86  72  62 W12       30.05F HX  92
$$

ARZ004-005-016-271600-
NORTH CENTRAL ARKANSAS

CITY           SKY/WX    TMP DP  RH WIND       PRES   REMARKS
BATESVILLE     MOSUNNY   88  73  62 W9        29.98R HX  96
FLIPPIN        SUNNY     88  72  58 W8        29.99S HX  94
MTN HOME       SUNNY     85  73  67 VRB3      29.99S HX  91
$$

ARZ040-041-271600-
WEST CENTRAL ARKANSAS

CITY           SKY/WX    TMP DP  RH WIND       PRES   REMARKS
MENA           SUNNY     86  73  66 W12       30.06S HX  93
MOUNT IDA      SUNNY     85  73  67 VRB3      30.02S HX  91
$$

ARZ009-017-025-026-028-271600-
NORTHEAST ARKANSAS

CITY           SKY/WX    TMP DP  RH WIND       PRES   REMARKS
CORNING        FAIR      84  75  74 SW13      29.94S HX  92
JONESBORO      SUNNY     85  74  69 W16       29.96R HX  92
NEWPORT        PTSUNNY   89  75  63 SW17      29.98R HX  98
WALNUT RIDGE   SUNNY     86  73  66 W12       29.94F HX  93
BLYTHEVILLE    SUNNY     87  76  69 SW9       29.96S HX  97
$$

ARZ022-023-033-042-044-271600-
CENTRAL ARKANSAS

CITY           SKY/WX    TMP DP  RH WIND       PRES   REMARKS
LITTLE ROCK    PTSUNNY   85  73  67 W9        30.01S HX  91
N LITTLE ROCK  PTSUNNY   84  76  75 W7        30.01S HX  93
JACKSONVILLE   MOSUNNY   85  76  73 SW8       30.01R HX  94
SEARCY         PTSUNNY   86  76  71 SW6       30.00S HX  96
HOT SPRINGS    SUNNY     85  73  67 W8        30.03S HX  91
RUSSELLVILLE   MOSUNNY   85  75  72 VRB3      30.00S HX  93
CLINTON        FAIR      86  75  70 SW6       30.00S HX  95
$$

ARZ036-271600-
EAST ARKANSAS

CITY           SKY/WX    TMP DP  RH WIND       PRES   REMARKS
WEST MEMPHIS   MOSUNNY   84  77  79 W7        29.99R HX  94
$$

ARZ050-053-066-070-073-271600-
SOUTHWEST ARKANSAS

CITY           SKY/WX    TMP DP  RH WIND       PRES   REMARKS
ARKADELPHIA    FAIR      87  76  69 W13       30.04S HX  97
CAMDEN         SUNNY     86  72  62 W6        30.05R HX  92
TEXARKANA      SUNNY     86  71  60 W10       30.05R HX  91
EL DORADO      SUNNY     85  74  69 W8        30.07R HX  92
DE QUEEN       SUNNY     82  74  76 SW10      30.03S HX  88
$$

ARZ056-057-069-271600-
SOUTHEAST ARKANSAS

CITY           SKY/WX    TMP DP  RH WIND       PRES   REMARKS
PINE BLUFF     SUNNY     85  75  72 SW8       30.02F HX  93
STUTTGART      MOSUNNY   86  75  70 SW12      30.01S HX  95
MONTICELLO     SUNNY     86  75  69 W12       30.04S HX  95

$$





USA.gov is the U.S. government's official web portal to all federal, state and local government web resources and services.